Location: Terra Rouge Observatory
(46.0000°N, 62.7500°W)
Time: 12:34:39
(UTC-03:00)

Daily predictions for brighter satellites

Satellite Brightness Start Highest point End
(mag) Time Altitude Azimuth Time Altitude Azimuth Time Altitude Azimuth
Thor Agena Rocket 3.7 20:37:38 10° NNE 20:42:51 61° ESE 20:48:05 10° S
Lacrosse 5 3.2 20:42:43 10° NW 20:47:17 32° NNE 20:51:50 10° E
Cosmos 1933 Rocket 3.5 20:43:28 10° N 20:47:53 85° E 20:52:13 10° S
Cosmos 2344 4.3 20:43:14 10° SSE 20:49:29 28° ESE 20:56:04 10° NE
Cosmos 1727 Rocket 4.3 20:44:14 10° N 20:50:11 46° ENE 20:56:04 10° SSE
Resurs 01 Rocket 1.7 20:46:58 10° SSE 20:51:22 69° ENE 20:55:48 10° N
SL-16 R/B 2.5 20:50:19 10° S 20:55:40 45° ESE 21:01:02 10° NE
YAOGAN 6 2.7 20:52:07 10° S 20:55:44 84° WSW 20:59:27 10° NNW
ERS-2 3.1 20:59:54 10° S 21:03:28 49° WSW 21:07:05 10° NNW
Cosmos 407 Rocket 3.4 20:59:57 10° NNW 21:05:07 83° ENE 21:10:15 10° SSE
Cosmos 1862 3.8 21:05:27 10° N 21:09:18 42° ENE 21:12:50 12° SSE
Cosmos 1869 Rocket 3.9 21:07:07 10° N 21:11:21 47° ENE 21:15:20 11° SSE
SL-8 R/B 3.9 21:07:31 10° W 21:12:19 77° NNW 21:17:09 10° ENE
Resurs 1-3 3.9 21:08:01 10° S 21:12:23 71° WSW 21:16:47 10° NNW
Cosmos 2218 Rocket 4.1 21:06:03 10° S 21:12:25 82° E 21:18:52 10° N
Cosmos 2366 rocket 4.0 21:10:33 10° S 21:16:47 81° E 21:23:08 10° N
BREEZE-M DEB (TANK) 2.3 21:14:12 10° WNW 21:17:42 55° SSW 21:19:00 20° SE
SL-8 Rocket 4.3 21:16:44 10° SSW 21:23:00 72° W 21:29:17 10° N
RESURS DK-1 4.2 21:22:00 10° N 21:25:05 20° NE 21:27:28 13° E
Cosmos 2369 Rocket 3.4 21:20:23 10° N 21:25:21 30° NE 21:29:10 15° ESE
Cosmos 2297 4.0 21:23:00 10° NNW 21:28:40 69° WSW 21:34:18 10° SSE
Cosmos 676 Rocket 4.0 21:26:09 10° NNW 21:31:26 87° ENE 21:35:51 15° SSE
USA 186 4.1 21:31:54 10° SW 21:33:16 14° W 21:34:40 10° WNW
Gblst 52 Del rocket 4.4 21:28:51 10° SSW 21:34:05 42° SE 21:39:15 10° ENE
Meteor 1-4 Rocket 4.4 21:33:13 10° NNE 21:35:22 15° ENE 21:35:59 15° E
ATLAS 5 CENTAUR R/B 3.1 21:30:37 10° NNW 21:36:03 41° NE 21:40:35 17° ESE
USA 81 4.0 21:31:22 10° N 21:36:41 83° E 21:41:55 10° S
Cosmos 1441 Rocket 3.0 21:33:53 10° S 21:37:37 82° E 21:41:25 10° NNE
Helios 1B rocket 4.2 21:37:09 10° NE 21:39:19 15° E 21:39:19 15° E
SL-08 RB Rocket 3.9 21:41:14 22° SE 21:43:52 51° ENE 21:48:12 10° N
H-2A R/B 2.2 21:40:45 21° SE 21:43:57 54° ENE 21:48:45 10° N
Cosmos 1140 Rocket 3.5 21:40:26 10° NNW 21:45:38 84° WSW 21:49:25 19° SSE
Cosmos 2237 Rocket 3.9 21:40:42 10° WSW 21:45:49 35° NW 21:51:00 10° NNE
Cosmos 2056 Rocket 4.4 21:42:36 10° SW 21:47:54 55° WNW 21:53:12 10° NNE
Cosmos 1452 Rocket 3.4 21:43:03 10° S 21:48:14 65° ESE 21:53:28 10° NNE
Terra 3.5 21:48:44 16° E 21:50:27 19° ENE 21:53:46 10° NNE
Cosmos 1934 Rocket 4.3 21:57:24 23° SSE 22:00:43 45° E 22:06:26 10° NNE
Cosmos 1850 Rocket 4.0 21:57:54 10° NNW 22:03:04 66° ENE 22:05:32 31° SE
Cosmos 1933 3.3 22:03:42 19° S 22:06:33 89° W 22:10:40 10° N
Cosmos 921 Rocket 3.4 22:07:04 37° SE 22:07:54 42° ESE 22:11:58 10° NNE
CZ-4C R/B 2.0 22:03:29 10° SSW 22:08:38 72° ESE 22:14:38 10° NE
Meteor 1-14 Rocket 4.4 22:03:46 10° N 22:09:12 53° ENE 22:11:32 32° SE
MetOp-B 4.1 22:05:49 23° S 22:09:18 83° WSW 22:14:42 10° NNW
Cosmos 2242 Rocket 3.8 22:08:41 37° SE 22:09:50 47° E 22:14:04 10° NNE
Cosmos 1782 4.4 22:12:18 21° ENE 22:12:18 21° ENE 22:14:44 10° NE
USA 245 3.4 22:12:48 34° N 22:12:48 34° N 22:14:14 10° N
Cosmos 405 Rocket 4.0 22:09:59 10° SSW 22:13:41 42° WNW 22:17:31 10° N
Cosmos 1741 Rocket 4.0 22:08:37 10° NNW 22:13:59 79° ENE 22:16:20 34° SSE
Meteor 1-25 Rocket 4.4 22:10:44 10° N 22:16:23 58° ENE 22:18:40 34° SE
Cosmos 1174 4.3 22:15:00 31° S 22:16:48 46° ESE 22:20:45 10° NE
ARGOS 3.5 22:13:49 20° S 22:17:30 63° WSW 22:22:51 10° NNW
Cosmos 1461 4.1 22:13:22 10° NNW 22:17:51 37° NE 22:19:31 28° E
Cosmos 1943 Rocket 2.5 22:13:47 10° NNW 22:19:11 50° ENE 22:21:16 33° ESE
Helios 1A 2.9 22:19:35 46° SSE 22:20:47 77° ENE 22:24:58 10° N
Cosmos 1862 Rocket 3.6 22:20:16 45° SE 22:21:11 55° E 22:25:28 10° NNE
SL-19 R/B 4.5 22:18:55 34° SE 22:21:12 57° ENE 22:26:46 10° N
Meteor 1-26 Rocket 4.1 22:23:43 27° S 22:26:49 76° E 22:32:26 10° NNE
Resurs 01 Rocket 4.4 22:26:13 10° WSW 22:28:19 13° W 22:30:26 10° WNW
Intercosmos 24 4.3 22:25:15 20° S 22:29:19 88° W 22:33:31 10° N
Meteor 1-20 Rocket 4.1 22:24:25 10° N 22:29:54 69° ENE 22:31:46 41° SSE
Lacrosse 5 1.8 22:25:38 10° NW 22:30:43 83° SW 22:32:11 47° SE
Cosmos 1437 Rocket 3.0 22:27:02 10° NNW 22:30:54 66° W 22:31:53 46° SSW
ERS-1 Rocket 3.2 22:29:44 30° S 22:32:10 63° WSW 22:37:10 10° NNW
Spot 1 4.4 22:31:45 47° SE 22:32:51 61° ENE 22:37:24 10° N
SPOT 5 2.5 22:33:15 51° SSE 22:34:22 87° ENE 22:38:46 10° NNW
IGS 5A 3.9 22:34:06 45° E 22:34:23 45° ENE 22:38:24 10° N
Cosmos 1821 Rocket 4.2 22:30:22 14° SSW 22:35:59 74° W 22:42:16 10° N
SL-24 R/B 4.4 22:34:29 41° SSE 22:36:19 82° E 22:41:16 10° N
SL-16 R/B 4.0 22:34:52 10° WSW 22:39:56 33° NW 22:45:01 10° NNE
Meteor 1-29 4.2 22:41:52 10° NNE 22:43:58 33° NE 22:43:58 33° NE
Cosmos 1331 Rocket 4.3 22:46:21 47° ESE 22:46:24 47° ESE 22:51:26 10° NNE
Meteor 2-17 Rocket 4.4 22:49:42 33° S 22:52:39 88° W 22:58:49 10° N
Cosmos 2123 Rocket 4.1 22:47:02 10° NNW 22:53:21 74° W 22:55:59 37° S
USA 234 4.2 22:48:41 13° E 22:54:08 42° NNE 23:00:12 10° NW
SL-8 R/B 3.9 22:50:21 10° WNW 22:55:09 68° N 22:56:34 44° ENE
Cosmos 1733 Rocket 3.9 22:51:21 10° NNW 22:55:33 45° W 22:56:38 37° SW
CARTOSAT-1 3.4 22:58:33 82° ESE 22:58:40 83° ENE 23:03:01 10° NNW
Cosmos 1633 3.4 22:58:23 10° NNW 23:01:38 43° W 23:01:38 43° W
Cosmos 2344 4.0 22:55:29 10° SW 23:03:02 66° NW 23:11:49 10° NE
RESURS DK-1 2.8 22:59:23 10° NW 23:03:23 52° WSW 23:03:23 52° WSW
Cosmos 1943 3.1 23:03:14 37° SSW 23:05:38 88° WNW 23:11:22 10° NNE
CZ-2C R/B 3.5 23:02:02 10° NNE 23:06:26 34° E 23:06:26 34° E
Cosmos 1603 4.4 23:01:52 10° SW 23:07:21 53° WNW 23:12:51 10° NNE
Okean 1-7 3.9 23:09:42 38° NE 23:09:42 38° NE 23:12:44 10° NNE
Cosmos 1486 Rocket 4.4 23:03:37 10° NNW 23:08:46 50° ENE 23:09:18 48° E
Cosmos 1606 3.1 23:09:08 63° NW 23:09:08 63° NW 23:12:48 10° N
Cosmos 2369 Rocket 2.7 23:04:09 10° NW 23:09:39 52° WSW 23:10:58 43° SSW
Landsat 7 4.1 23:09:07 52° SW 23:09:50 59° W 23:14:33 10° NNW
Meteor 1-4 Rocket 3.9 23:07:27 10° NNW 23:10:16 32° W 23:10:16 32° W
Cosmos 389 Rocket 3.6 23:07:47 10° N 23:10:10 41° N 23:10:10 41° N
Helios 1B rocket 3.0 23:11:10 10° N 23:15:12 52° WNW 23:15:41 49° W
SPOT 1/Viking Rocket 4.3 23:14:27 36° SW 23:15:51 44° W 23:20:52 10° NNW
Cosmos 2173 Rocket 4.3 23:15:53 46° ESE 23:16:20 47° E 23:22:21 10° NNE
GEOS 3 Rocket 3.5 23:12:01 10° NE 23:17:24 76° SE 23:17:59 68° S
Cosmos 1110 Rocket 4.0 23:16:45 61° SSW 23:17:43 86° WNW 23:23:05 10° NNE
Nimbus 7 Rocket 4.2 23:13:02 10° NNE 23:18:56 76° ESE 23:19:51 63° SSE
ATLAS 5 CENTAUR R/B 2.9 23:15:12 10° NW 23:20:58 50° WSW 23:22:08 45° SSW
Cosmos 2263 4.4 23:16:44 10° NW 23:22:13 56° WSW 23:22:59 51° SW
Cosmos 1782 Rocket 3.7 23:18:36 10° N 23:22:41 73° N 23:22:41 73° N
H-2A R/B 4.0 23:21:22 15° SW 23:23:42 20° W 23:27:19 10° NW
CZ-2C R/B 2.7 23:24:05 83° ENE 23:24:05 83° ENE 23:28:57 10° NNW
Gblst 52 Del rocket 4.4 23:20:09 10° WSW 23:25:37 67° NNW 23:31:14 10° ENE
Sich 1 Rocket 3.8 23:22:03 10° NNW 23:26:27 71° WNW 23:26:27 71° WNW
Cosmos 1605 Rocket 4.4 23:24:01 34° SW 23:26:46 62° WNW 23:33:09 10° N
YAOGAN 11 4.4 23:27:33 60° WNW 23:27:33 60° WNW 23:31:31 10° NNW
Terra 2.1 23:27:36 58° WSW 23:27:46 58° W 23:32:29 10° NNW
Cosmos 2016 Rocket 4.4 23:32:03 43° E 23:32:03 43° E 23:37:44 10° NNE
Okean 2 Rocket 3.6 23:29:56 10° N 23:33:31 53° NNE 23:33:31 53° NNE
Meteor 1-11 Rocket 3.5 23:32:41 10° N 23:38:19 83° E 23:38:30 81° ESE
Cosmos 1459 Rocket 3.8 23:41:43 70° SE 23:42:05 73° E 23:48:11 10° NNE
Meteor 1-5 Rocket 4.1 23:39:18 10° N 23:44:37 70° ENE 23:44:37 70° ENE
Meteor 1-27 Rocket 3.6 23:45:04 78° ESE 23:45:12 79° E 23:51:00 10° NNE
Cosmos 1782 4.4 23:47:54 30° WNW 23:47:54 30° WNW 23:51:20 10° NNW
Cosmos 1703 Rocket 4.4 23:50:00 44° WNW 23:50:00 44° WNW 23:53:51 10° N
Cosmos 1271 Rocket 4.0 23:46:43 10° NNW 23:49:21 40° NNW 23:49:21 40° NNW
Spot 4 4.0 23:51:38 69° NNW 23:51:38 69° NNW 23:55:52 10° NNW
H-2A R/B 3.6 23:54:05 30° NE 23:54:05 30° NE 23:57:24 10° N
